Regional Weather Roundup
Issued by NWS

Home | Current Version | Previous Version | Graphics & Text | Print | Product List | Glossary On
Versions: 1 2 3 4 5 6 7 8 9 10 11 12 13 14 15 16 17 18 19 20 21 22 23 24 25 26 27 28 29 30 31 32 33 34 35 36 37 38 39 40 41 42 43 44 45 46 47 48 49 50
000
ASUS43 KDTX 141901
RWRMI
MICHIGAN HOURLY REGIONAL WEATHER ROUNDUP
NATIONAL WEATHER SERVICE DETROIT/PONTIAC MI
200 PM EST THU DEC 14 2017

NOTE: "FAIR" INDICATES FEW OR NO CLOUDS BELOW 12,000 FEET WITH NO
SIGNIFICANT WEATHER AND/OR OBSTRUCTION TO VISIBILITY.

MIZ047>049-052>055-059>063-066>070-074>076-081>083-142000-
SOUTHEAST LOWER MICHIGAN

CITY           SKY/WX    TMP DP  RH WIND       PRES   REMARKS
ADRIAN         SUNNY     20   6  55 N9        30.02F WCI   9
ANN ARBOR      SUNNY     20   7  57 W8        30.01S WCI  10
BAD AXE        CLOUDY    15   9  75 W12       30.00R WCI   2
CARO           SUNNY     13   6  71 W6        30.00F WCI   4
DETROIT CITY   SUNNY     21   2  43 NW8       30.02S WCI  11
DETROIT        MOSUNNY   23   4  44 W7        30.03S WCI  15
FLINT          SUNNY     14   5  67 W6        30.02S WCI   5
GROSSE ILE     SUNNY     21   3  45 NW8       30.01F WCI  11
HILLSDALE      SUNNY     21   7  53 CALM      29.98F
HOWELL         SUNNY     17   8  66 CALM      30.01S

CITY           SKY/WX    TMP DP  RH WIND       PRES   REMARKS
JACKSON        SUNNY     21   6  52 CALM      30.00F
LAMBERTVILLE   SUNNY     18   5  57 NW5       30.03S WCI  11
LANSING        SUNNY     19   8  62 CALM      30.02F
LAPEER         FAIR      18   7  62 NW7       30.00S WCI   8
MASON          SUNNY     18   4  56 CALM      30.02S
MONROE         SUNNY     18   4  53 W9        30.02F WCI   7
MT. CLEMENS    MOSUNNY   20   1  43 NW5       30.00R WCI  13
PONTIAC        MOSUNNY   18   7  62 N6        29.98S WCI  10
PORT HOPE        N/A     19   9  65 W8        29.97S WCI   9
PORT HURON     SUNNY     18   3  53 W5        30.01R WCI  11
TRI CITIES     SUNNY     15   8  73 SW9       30.02F WCI   3
MIDLAND        FAIR      21  10  62 CALM      30.00S
TROY           SUNNY     21   2  42 NW6       30.02S WCI  14
SAGINAW HB     SUNNY     16   9  73 SW9       30.02S WCI   4
$$
MIZ043>046-050>051-056>058-064>065-071>073-077>080-142000-
SOUTHWEST LOWER MICHIGAN

CITY           SKY/WX    TMP DP  RH WIND       PRES   REMARKS
BATTLE CREEK   CLOUDY    20  10  65 SW6       30.01F WCI  12
BENTON HARBOR  CLOUDY    22  12  65 SE8       30.04F WCI  12
BIG RAPIDS     CLOUDY    23  15  70 W6        29.97S WCI  16
COLDWATER      CLOUDY    23   8  52 CALM      30.01S
HOLLAND        FLURRIES  20  15  81 S7        30.03F WCI  11
GRAND RAPIDS   FLURRIES  20  12  71 S7        30.01F WCI  11
IONIA          FAIR      18   8  65 SW7       30.01S WCI   9
KALAMAZOO      FLURRIES  20  11  68 SW3       30.02F
LUDINGTON      CLOUDY    23  13  65 W7        30.00S WCI  15
MARSHALL       PTSUNNY   22   6  49 CALM      30.00F
MOUNT PLEASANT SUNNY     20  10  65 SE6       29.98S WCI  12
MUSKEGON       LGT SNOW  21  16  81 SE6       30.03S VSB 1   WCI  13
SOUTH HAVEN    FLURRIES  22  13  68 S3        30.04S
$$
MIZ016>042-142000-
NORTHERN LOWER MICHIGAN

CITY           SKY/WX    TMP DP  RH WIND       PRES   REMARKS
ALPENA         PTSUNNY   19   9  65 W8        29.96S WCI   9
BEAVER ISLAND  CLOUDY    23  14  69 W8        29.94F WCI  13
BELLAIRE       LGT SNOW  20  18  91 S3        29.96F
CADILLAC       CLOUDY    20  14  77 W3        29.92S
CHARLEVOIX     CLOUDY    24  16  71 W14       29.97S WCI  11
FRANKFORT      FLURRIES  24  15  68 W6        29.98S WCI  17
GRAYLING       LGT SNOW  20  12  71 W3        29.93F
HARBOR SPRINGS CLOUDY    21  11  65 CALM      29.94S
HOUGHTON LAKE  FLURRIES  18  12  77 SW5       29.94F WCI  11
MANISTEE       FLURRIES  24  15  68 W10       29.99S WCI  14
OSCODA         MOSUNNY   20   7  58 NW5       29.97S WCI  13
PELLSTON       CLOUDY    21  12  68 NW8       29.94F WCI  11
ROGERS CITY    CLOUDY    19  10  66 W6        29.96F WCI  11
TRAVERSE CITY  LGT SNOW  23  16  74 W7        29.96F WCI  15
$$
MIZ007>008-015-142000-
EASTERN UPPER MICHIGAN

CITY           SKY/WX    TMP DP  RH WIND       PRES   REMARKS
KINROSS        FLURRIES  14   7  73 SE6       29.92F WCI   5
MACKINAC ISLAN CLOUDY    22  11  64 W8        29.92S WCI  12
NEWBERRY       FLURRIES  19  15  88 SW8       29.90S WCI   8
S. S. MARIE    CLOUDY     7   1  76 SE3       29.92F
MUNISING         N/A     21  13  71 W6        29.93F WCI  13
$$
MIZ004>006-011>014-085-142000-
CENTRAL UPPER MICHIGAN

CITY           SKY/WX    TMP DP  RH WIND       PRES   REMARKS
MANISTIQUE     MOSUNNY   20   6  52 W6        29.94S WCI  13
ESCANABA       CLOUDY    23  10  57 W10       29.97F WCI  12
MENOMINEE      SUNNY     23  11  60 NW5       30.00F WCI  17
SAWYER-GWINN   CLOUDY    18   9  68 W13       29.91F WCI   4
$$
MIZ001>003-009>011-084-142000-
WESTERN UPPER MICHIGAN

CITY           SKY/WX    TMP DP  RH WIND       PRES   REMARKS
IRON MOUNTAIN  CLOUDY    20   8  60 W8        29.91F WCI  10
HOUGHTON       PTSUNNY   19   8  62 NW12      29.90F WCI   7
COPPER HARBOR    N/A     21  12  68 N16G22    29.92F WCI   7
IRONWOOD       FLURRIES  17  12  80 SW9       29.94F WCI   6
$$

ABBREVIATIONS USED IN REMARKS
   TC - TEMPERATURE IN CELSIUS
  WCI - WIND CHILL INDEX
   HX - HEAT INDEX
  VSB - VISIBILITY





USA.gov is the U.S. government's official web portal to all federal, state and local government web resources and services.